User: anonymous   Login
Location: Edmonton
(53.5500°N, 113.5000°W)
Time: 08:54:51
(UTC-07:00)
Language:

CZ-4C R/B - Orbit

View from above orbital plane
View from above orbital plane
View from above satellite
View from above satellite

Ground track
Ground track

The orbit data is extracted from the following two-line orbital elements,

1 36416U 10009D   14352.55021461 -.00000074  00000-0  18547-4 0  7943
2 36416 063.4461 186.6444 0298092 359.6715 000.4082 13.69443401239525
Epoch (UTC): 18 December 2014 13:12:18
Eccentricity: 0.0298092
inclination: 63.4461°
perigee height: 781 km
apogee height: 1221 km
right ascension of ascending node: 186.6444°
argument of perigee: 359.6715°
revolutions per day: 13.69443401
mean anomaly at epoch: 0.4082°
orbit number at epoch: 23952

The dashed part of the orbit path shows where the satellite is in the earth's shadow,  

DLR